KC5EZZ-2 Weather Reports


time (UTC)temp
C
wind
direction
speed
KPH
gust
KPH
rain 1hr
cm
rain 24hr
cm
rain mn
cm
humidity
%
barometer
mb
20260508175655 23 191 0.0 0.0 0.00 0.00 0.00
20260508175153 22 187 3.2 1.6 0.00 0.00 0.00
20260508174653 22 4 0.0 0.0 0.00 0.00 0.00
20260508174154 22 97 0.0 6.4 0.00 0.00 0.00
20260508173651 22 339 0.0 1.6 0.00 0.00 0.00
20260508173152 22 215 0.0 0.0 0.00 0.00 0.00
20260508172652 22 215 0.0 0.0 0.00 0.00 0.00
20260508172150 21 181 1.6 1.6 0.00 0.00 0.00
20260508171650 21 110 3.2 4.8 0.00 0.00 0.00
20260508171150 21 70 0.0 0.0 0.00 0.00 0.00
20260508170648 21 73 3.2 6.4 0.00 0.00 0.00
20260508170148 21 113 0.0 4.8 0.00 0.00 0.00
20260508165649 21 97 0.0 0.0 0.00 0.00 0.00
20260508165146 22 97 0.0 0.0 0.00 0.00 0.00
20260508164647 22 150 8.0 11.3 0.00 0.00 0.00
20260508164147 22 115 4.8 0.0 0.00 0.00 0.00
20260508163645 23 138 9.7 11.3 0.00 0.00 0.00
20260508163145 22 160 8.0 3.2 0.00 0.00 0.00
20260508162645 20 35 0.0 0.0 0.00 0.00 0.00
20260508162143 20 55 6.4 4.8 0.00 0.00 0.00
20260508161643 20 131 9.7 3.2 0.00 0.00 0.00
20260508161144 21 131 4.8 4.8 0.00 0.00 0.00
20260508160641 22 285 0.0 0.0 0.00 0.00 0.00
20260508160142 21 285 3.2 0.0 0.00 0.00 0.00
20260508155642 21 139 4.8 3.2 0.00 0.00 0.00
20260508155139 20 203 4.8 1.6 0.00 0.00 0.00
20260508154640 19 79 3.2 1.6 0.00 0.00 0.00
20260508154140 20 359 0.0 0.0 0.00 0.00 0.00
20260508153638 18 59 1.6 0.0 0.00 0.00 0.00
20260508153138 18 60 8.0 1.6 0.00 0.00 0.00
20260508152639 17 69 3.2 0.0 0.00 0.00 0.00
20260508152136 18 70 4.8 6.4 0.00 0.00 0.00
20260508151636 18 169 6.4 1.6 0.00 0.00 0.00
20260508151137 17 60 6.4 1.6 0.00 0.00 0.00
20260508150634 18 124 0.0 0.0 0.00 0.00 0.00
20260508150135 17 101 0.0 8.0 0.00 0.00 0.00
20260508145635 17 121 4.8 6.4 0.00 0.00 0.00
20260508145133 16 38 3.2 3.2 0.00 0.00 0.00
20260508144633 16 42 4.8 4.8 0.00 0.00 0.00
20260508144133 16 125 1.6 0.0 0.00 0.00 0.00
20260508143131 16 48 3.2 8.0 0.00 0.00 0.00
20260508142632 16 97 11.3 8.0 0.00 0.00 0.00
20260508142129 16 148 4.8 6.4 0.00 0.00 0.00
20260508141630 15 146 8.0 6.4 0.00 0.00 0.00
20260508141130 15 111 8.0 9.7 0.00 0.00 0.00
20260508140628 15 91 6.4 6.4 0.00 0.00 0.00
20260508140128 15 83 6.4 3.2 0.00 0.00 0.00
20260508135628 15 89 6.4 6.4 0.00 0.00 0.00
20260508135126 15 59 4.8 3.2 0.00 0.00 0.00
20260508134626 15 69 4.8 6.4 0.00 0.00 0.00
20260508134127 15 59 1.6 0.0 0.00 0.00 0.00
20260508133624 15 56 4.8 1.6 0.00 0.00 0.00
20260508133124 15 77 8.0 3.2 0.00 0.00 0.00
20260508132625 15 359 9.7 6.4 0.00 0.00 0.00
20260508132122 15 0 11.3 11.3 0.00 0.00 0.00
20260508131622 15 6 8.0 9.7 0.00 0.00 0.00
20260508131123 15 10 9.7 11.3 0.00 0.00 0.00
20260508130620 15 18 11.3 11.3 0.00 0.00 0.00
20260508130121 15 28 9.7 8.0 0.00 0.00 0.00
20260508125621 15 39 6.4 9.7 0.00 0.00 0.00
20260508125119 15 68 8.0 8.0 0.00 0.00 0.00
20260508124619 15 46 6.4 6.4 0.00 0.00 0.00
20260508124120 15 41 8.0 9.7 0.00 0.00 0.00
20260508123617 15 41 8.0 9.7 0.00 0.00 0.00
20260508123118 15 27 8.0 6.4 0.00 0.00 0.00
20260508122618 15 11 6.4 8.0 0.00 0.00 0.00
20260508122115 15 45 8.0 9.7 0.00 0.00 0.00
20260508121615 15 52 6.4 11.3 0.00 0.00 0.00
20260508121115 15 68 6.4 4.8 0.00 0.00 0.00
20260508120613 15 62 8.0 8.0 0.00 0.00 0.00
20260508120113 15 44 6.4 8.0 0.00 0.00 0.00
20260508115614 15 45 9.7 6.4 0.00 0.00 0.00
20260508115111 15 60 6.4 6.4 0.00 0.00 0.00
20260508114612 15 91 6.4 4.8 0.00 0.00 0.00
20260508114112 15 94 3.2 8.0 0.00 0.00 0.00
20260508113610 15 86 4.8 6.4 0.00 0.00 0.00
20260508113110 15 86 6.4 6.4 0.00 0.00 0.00
20260508112611 15 77 3.2 6.4 0.00 0.00 0.00
20260508112108 15 58 3.2 3.2 0.00 0.00 0.00
20260508111609 15 66 6.4 4.8 0.00 0.00 0.00
20260508111109 15 86 3.2 3.2 0.00 0.00 0.00
20260508110607 15 23 0.0 0.0 0.00 0.00 0.00
20260508110107 15 23 0.0 0.0 0.00 0.00 0.00
20260508105608 15 23 3.2 1.6 0.00 0.00 0.00
20260508105105 15 357 6.4 6.4 0.00 0.00 0.00
20260508104606 15 1 0.0 6.4 0.00 0.00 0.00
20260508104106 15 129 0.0 0.0 0.00 0.00 0.00
20260508103604 15 129 0.0 0.0 0.00 0.00 0.00
20260508103104 15 129 0.0 0.0 0.00 0.00 0.00
20260508102605 15 129 0.0 0.0 0.00 0.00 0.00
20260508102103 15 129 0.0 0.0 0.00 0.00 0.00
20260508101603 15 129 0.0 0.0 0.00 0.00 0.00
20260508101104 15 129 0.0 0.0 0.00 0.00 0.00
20260508100601 15 129 0.0 0.0 0.00 0.00 0.00
20260508095602 15 129 0.0 0.0 0.00 0.00 0.00
20260508094600 15 129 0.0 0.0 0.00 0.00 0.00
20260508094101 15 129 0.0 0.0 0.00 0.00 0.00
20260508093559 15 138 3.2 1.6 0.00 0.00 0.00
20260508093059 15 121 1.6 0.0 0.00 0.00 0.00
20260508092600 15 139 4.8 6.4 0.00 0.00 0.00
20260508092057 15 139 4.8 4.8 0.00 0.00 0.00
20260508091558 15 162 4.8 4.8 0.00 0.00 0.00
20260508091057 14 127 6.4 6.4 0.00 0.00 0.00
20260508090555 14 145 6.4 6.4 0.00 0.00 0.00
20260508090055 15 146 6.4 6.4 0.00 0.00 0.00
20260508085556 14 158 6.4 4.8 0.00 0.00 0.00
20260508085053 14 145 11.3 9.7 0.00 0.00 0.00
20260508084554 14 142 8.0 9.7 0.00 0.00 0.00
20260508084055 14 142 8.0 8.0 0.00 0.00 0.00
20260508083552 14 149 11.3 11.3 0.00 0.00 0.00
20260508083053 14 172 9.7 9.7 0.00 0.00 0.00
20260508082553 14 138 6.4 3.2 0.00 0.00 0.00
20260508081552 14 143 12.9 9.7 0.00 0.00 0.00
20260508080550 14 128 11.3 11.3 0.00 0.00 0.00
20260508080050 14 127 14.5 12.9 0.00 0.00 0.00
20260508075551 14 127 11.3 12.9 0.00 0.00 0.00
20260508075049 14 139 8.0 9.7 0.00 0.00 0.00
20260508074549 14 131 8.0 8.0 0.00 0.00 0.00
20260508074050 14 155 8.0 8.0 0.00 0.00 0.00
20260508073547 14 155 9.7 6.4 0.00 0.00 0.00
20260508073048 14 103 11.3 8.0 0.00 0.00 0.00
20260508072548 14 124 6.4 9.7 0.00 0.00 0.00
20260508072046 14 131 11.3 8.0 0.00 0.00 0.00
20260508071546 14 150 9.7 8.0 0.00 0.00 0.00
20260508071047 14 90 9.7 9.7 0.00 0.00 0.00
20260508070544 14 83 8.0 9.7 0.00 0.00 0.00
20260508070045 14 125 6.4 8.0 0.00 0.00 0.00
20260508065545 15 97 8.0 4.8 0.00 0.00 0.00
20260508065042 14 82 8.0 8.0 0.00 0.00 0.00
20260508064542 15 68 9.7 11.3 0.00 0.00 0.00
20260508064043 15 91 8.0 9.7 0.00 0.00 0.00
20260508063540 15 72 6.4 6.4 0.00 0.00 0.00
20260508063041 15 84 9.7 6.4 0.00 0.00 0.00
20260508062542 15 38 4.8 6.4 0.00 0.00 0.00
20260508062039 15 352 6.4 4.8 0.00 0.00 0.00
20260508061540 14 335 6.4 6.4 0.00 0.00 0.00
20260508061040 15 309 4.8 4.8 0.00 0.00 0.00
20260508060538 15 311 4.8 3.2 0.00 0.00 0.00
20260508060038 14 326 6.4 4.8 0.00 0.00 0.00
20260508055539 14 322 8.0 8.0 0.00 0.00 0.00
20260508055039 15 63 0.0 0.0 0.00 0.00 0.00
20260508054538 15 63 0.0 0.0 0.00 0.00 0.00
20260508054038 15 63 0.0 0.0 0.00 0.00 0.00
20260508053537 14 63 0.0 0.0 0.00 0.00 0.00
20260508053035 11 63 0.0 0.0 0.00 0.00 0.00
20260508052536 14 63 0.0 0.0 0.00 0.00 0.00
20260508052033 14 63 0.0 0.0 0.00 0.00 0.00
20260508051534 14 66 4.8 3.2 0.00 0.00 0.00
20260508051034 15 76 4.8 4.8 0.00 0.00 0.00
20260508050532 14 80 6.4 8.0 0.00 0.00 0.00
20260508050032 14 94 6.4 6.4 0.00 0.00 0.00
20260508045533 14 89 6.4 3.2 0.00 0.00 0.00
20260508045030 14 94 4.8 8.0 0.00 0.00 0.00
20260508044531 14 98 6.4 8.0 0.00 0.00 0.00
20260508044031 15 105 6.4 6.4 0.00 0.00 0.00
20260508043611 15 114 8.0 6.4 0.00 0.00 0.00
20260508043529 15 114 8.0 6.4 0.00 0.00 0.00
20260508043029 13 107 0.0 0.0 0.00 0.00 0.00
20260508042530 12 107 0.0 0.0 0.00 0.00 0.00
20260508042059 12 107 0.0 0.0 0.00 0.00 0.00
20260508042027 12 107 0.0 0.0 0.00 0.00 0.00
20260508041651 12 107 0.0 0.0 0.00 0.00 0.00
20260508041528 12 107 0.0 0.0 0.00 0.00 0.00
20260508041028 13 107 0.0 0.0 0.00 0.00 0.00
20260508040526 12 107 0.0 0.0 0.00 0.00 0.00
20260508040026 14 107 0.0 0.0 0.00 0.00 0.00
20260508035527 14 107 0.0 0.0 0.00 0.00 0.00
20260508035024 14 107 0.0 0.0 0.00 0.00 0.00
20260508034525 14 93 0.0 4.8 0.00 0.00 0.00
20260508034025 14 49 0.0 0.0 0.00 0.00 0.00
20260508033523 14 49 0.0 0.0 0.00 0.00 0.00
20260508033023 14 49 0.0 0.0 0.00 0.00 0.00
20260508032524 14 121 4.8 4.8 0.00 0.00 0.00
20260508032021 13 87 8.0 6.4 0.00 0.00 0.00
20260508031522 14 104 6.4 6.4 0.00 0.00 0.00
20260508031022 14 91 9.7 6.4 0.00 0.00 0.00
20260508030520 13 83 9.7 11.3 0.00 0.00 0.00
20260508030021 13 90 9.7 8.0 0.00 0.00 0.00
20260508025521 14 93 8.0 8.0 0.00 0.00 0.00
20260508025019 13 75 6.4 6.4 0.00 0.00 0.00
20260508024519 14 103 8.0 8.0 0.00 0.00 0.00
20260508024019 14 107 6.4 6.4 0.00 0.00 0.00
20260508023516 13 120 4.8 4.8 0.00 0.00 0.00
20260508022517 11 79 8.0 4.8 0.00 0.00 0.00
20260508022014 11 76 6.4 8.0 0.00 0.00 0.00
20260508021515 11 104 8.0 8.0 0.00 0.00 0.00
20260508021015 11 101 6.4 9.7 0.00 0.00 0.00
20260508020513 11 125 8.0 6.4 0.00 0.00 0.00
20260508020013 11 103 6.4 6.4 0.00 0.00 0.00
20260508015514 13 94 9.7 8.0 0.00 0.00 0.00
20260508015010 11 136 8.0 8.0 0.00 0.00 0.00
20260508014511 12 136 8.0 4.8 0.00 0.00 0.00
20260508014012 12 93 6.4 8.0 0.00 0.00 0.00
20260508013509 11 94 8.0 9.7 0.00 0.00 0.00
20260508013010 12 114 9.7 9.7 0.00 0.00 0.00
20260508012510 11 104 11.3 11.3 0.00 0.00 0.00
20260508012008 12 117 8.0 6.4 0.00 0.00 0.00
20260508011508 12 101 8.0 11.3 0.00 0.00 0.00
20260508011009 10 113 9.7 11.3 0.00 0.00 0.00
20260508010506 10 141 12.9 14.5 0.00 0.00 0.00
20260508010007 11 114 11.3 9.7 0.00 0.00 0.00
20260508005507 13 135 6.4 9.7 0.00 0.00 0.00
20260508005005 14 114 9.7 6.4 0.00 0.00 0.00
20260508004505 11 93 8.0 6.4 0.00 0.00 0.00
20260508004006 13 124 9.7 4.8 0.00 0.00 0.00
20260508003503 13 139 9.7 12.9 0.00 0.00 0.00
20260508003005 14 107 9.7 11.3 0.00 0.00 0.00
20260508002505 14 135 9.7 11.3 0.00 0.00 0.00
20260508002002 14 115 11.3 11.3 0.00 0.00 0.00
20260508001503 11 89 8.0 9.7 0.00 0.00 0.00
20260508001003 12 122 8.0 8.0 0.00 0.00 0.00
20260508000501 13 113 9.7 11.3 0.00 0.00 0.00
20260508000001 11 100 11.3 9.7 0.00 0.00 0.00
20260507235502 11 105 8.0 4.8 0.00 0.00 0.00
20260507235000 12 122 11.3 11.3 0.00 0.00 0.00
20260507234500 14 138 9.7 8.0 0.00 0.00 0.00
20260507234001 14 135 12.9 9.7 0.00 0.00 0.00
20260507233458 12 101 11.3 12.9 0.00 0.00 0.00
20260507232959 12 142 8.0 6.4 0.00 0.00 0.00
20260507232459 12 143 8.0 9.7 0.00 0.00 0.00
20260507231957 13 105 8.0 6.4 0.00 0.00 0.00
20260507231458 12 132 9.7 9.7 0.00 0.00 0.00
20260507230958 13 124 9.7 11.3 0.00 0.00 0.00
20260507230456 12 103 9.7 6.4 0.00 0.00 0.00
20260507225956 15 114 12.9 11.3 0.00 0.00 0.00
20260507225457 12 108 11.3 11.3 0.00 0.00 0.00
20260507224455 12 107 11.3 8.0 0.00 0.00 0.00
20260507223956 14 77 12.9 14.5 0.00 0.00 0.00
20260507223453 15 70 14.5 11.3 0.00 0.00 0.00
20260507222954 15 87 12.9 14.5 0.00 0.00 0.00
20260507222455 15 98 11.3 17.7 0.00 0.00 0.00
20260507221952 15 132 14.5 14.5 0.00 0.00 0.00
20260507221453 15 104 14.5 11.3 0.00 0.00 0.00
20260507220953 15 101 14.5 12.9 0.00 0.00 0.00
20260507220451 15 113 14.5 14.5 0.00 0.00 0.00
20260507215951 15 115 12.9 14.5 0.00 0.00 0.00
20260507215452 16 93 14.5 14.5 0.00 0.00 0.00
20260507214949 16 100 16.1 14.5 0.00 0.00 0.00
20260507214450 16 91 16.1 19.3 0.00 0.00 0.00
20260507213950 15 90 12.9 14.5 0.00 0.00 0.00
20260507213448 16 117 19.3 17.7 0.00 0.00 0.00
20260507212948 16 87 17.7 14.5 0.00 0.00 0.00
20260507212449 16 96 16.1 20.9 0.00 0.00 0.00
20260507211946 15 86 20.9 22.5 0.00 0.00 0.00
20260507211447 16 107 20.9 22.5 0.00 0.00 0.00
20260507210948 15 105 17.7 16.1 0.00 0.00 0.00
20260507210445 16 83 14.5 16.1 0.00 0.00 0.00
20260507205946 16 84 14.5 12.9 0.00 0.00 0.00
20260507205446 16 75 12.9 11.3 0.00 0.00 0.00
20260507204944 16 87 11.3 12.9 0.00 0.00 0.00
20260507204444 16 76 12.9 17.7 0.00 0.00 0.00
20260507203945 15 93 14.5 16.1 0.00 0.00 0.00
20260507203442 16 117 14.5 14.5 0.00 0.00 0.00
20260507202943 16 87 14.5 14.5 0.00 0.00 0.00
20260507202443 16 100 17.7 16.1 0.00 0.00 0.00
20260507201941 17 121 17.7 25.7 0.00 0.00 0.00
20260507201442 17 75 16.1 16.1 0.00 0.00 0.00
20260507200942 17 77 17.7 17.7 0.00 0.00 0.00
20260507200440 17 90 11.3 9.7 0.00 0.00 0.00
20260507195940 17 66 16.1 19.3 0.00 0.00 0.00
20260507195441 17 60 14.5 11.3 0.00 0.00 0.00
20260507194938 17 52 11.3 14.5 0.00 0.00 0.00
20260507194439 17 96 14.5 14.5 0.00 0.00 0.00
20260507193939 17 63 16.1 12.9 0.00 0.00 0.00
20260507193437 17 75 17.7 12.9 0.00 0.00 0.00
20260507192937 17 104 12.9 11.3 0.00 0.00 0.00
20260507192438 17 76 11.3 12.9 0.00 0.00 0.00
20260507191935 17 70 16.1 12.9 0.00 0.00 0.00
20260507191436 18 41 16.1 12.9 0.00 0.00 0.00
20260507190936 18 87 14.5 14.5 0.00 0.00 0.00
20260507190434 17 66 11.3 12.9 0.00 0.00 0.00
20260507185934 17 135 17.7 20.9 0.00 0.00 0.00
20260507185435 17 128 14.5 12.9 0.00 0.00 0.00
20260507184933 18 73 16.1 17.7 0.00 0.00 0.00
20260507184433 17 59 16.1 11.3 0.00 0.00 0.00
20260507183934 17 42 16.1 16.1 0.00 0.00 0.00
20260507183431 17 38 14.5 17.7 0.00 0.00 0.00
20260507182932 17 39 14.5 19.3 0.00 0.00 0.00
20260507182432 17 56 19.3 14.5 0.00 0.00 0.00
20260507181929 17 48 14.5 17.7 0.00 0.00 0.00
20260507181430 17 100 14.5 16.1 0.00 0.00 0.00
20260507180930 17 82 22.5 17.7 0.00 0.00 0.00
20260507180428 17 62 20.9 12.9 0.00 0.00 0.00